Find Tongxin Jishu Shiyan 12

NORAD ID: 62374 Int'l Des: 2024-246 Owner: ZLZB Country: CN operational
HEOCIRCULARGSO

实时位置

正在加载3D地球...

关于 Tongxin Jishu Shiyan 12

正在加载描述...

即将过境

Passes for default location (London). Set your location on the main map for personalized predictions.

高度历史

Loading altitude history...

两行轨道根数

1 62374U 24246A 26104.97216241 -.00000227 00000-0 00000-0 0 9997
2 62374 0.8152 294.0688 0002207 50.7637 354.8341 1.00271471 4933
Epoch: Apr 14, 2026 • Age: 7 hours

当前状态

高度 35788.2 km
速度 3.07 km/s
星下点 0.34°N, 146.57°E
发射日期 Dec 20, 2024
运行时间 1.3 years
类型 other

技术详情

分类 Payload
质量 5000.00 kg
干质量 2500.00 kg
总质量 5000.00 kg
长度 5.00 m
直径 2.50 m
跨度 30.00 m
形状 Box + 2 Pan
制造商 SISE
平台类型 FY-4
阶段状态 In Orbit
所有者/国家 ZLZB/CN

Most Searched